Location: Unspecified
(0.0000°N, 0.0000°E)
Time: 13:44:27
(UTC+00:00)

S-56A Canister/Altair - All Passes

Search period start: 29 September 2023 00:00
Search period end: 09 October 2023 00:00
Orbit: 640 x 2489 km, 38.9° (Epoch: 28 September)

Date Brightness Start Highest point End Pass type
(mag) Time Alt. Az. Time Alt. Az. Time Alt. Az.
29 Sep - 02:15:19 10° SSW 02:26:41 27° SSE 02:35:59 10° E visible
29 Sep - 04:20:27 10° SW 04:33:57 79° SE 04:43:00 10° NE visible
29 Sep - 06:30:12 10° W 06:38:32 26° NW 06:44:44 10° N daylight
29 Sep - 15:03:12 10° N 15:07:18 21° NE 15:12:27 10° E daylight
29 Sep - 17:04:43 10° WNW 17:11:01 61° SW 17:20:40 10° SE daylight
29 Sep - 19:12:14 10° WSW 19:17:43 17° SSW 19:24:26 10° S visible
30 Sep - 01:41:42 10° SSW 01:52:38 24° SSE 02:01:58 10° E visible
30 Sep - 03:46:23 10° SW 04:00:20 70° SE 04:09:59 10° ENE visible
30 Sep - 05:55:22 10° WSW 06:05:18 32° NW 06:12:27 10° NNE daylight
30 Sep - 14:31:24 10° NNE 14:34:21 15° NE 14:37:47 10° E daylight
30 Sep - 16:31:55 10° NW 16:37:50 73° SW 16:46:53 10° SE daylight
30 Sep - 18:38:34 10° WSW 18:44:01 18° SSW 18:50:52 10° SSE visible
01 Oct - 01:08:11 10° SSW 01:18:30 22° SSE 01:27:41 10° ESE visible
01 Oct - 03:12:24 10° SW 03:26:35 62° SE 03:36:49 10° ENE visible
01 Oct - 05:20:40 10° WSW 05:32:01 40° NW 05:39:59 10° NNE visible
01 Oct - 15:59:12 10° NW 16:04:45 88° SW 16:13:07 10° SE daylight
01 Oct - 18:05:04 10° WSW 18:10:25 20° SSW 18:17:19 10° SSE visible
02 Oct - 00:34:48 10° S 00:44:18 19° SSE 00:53:07 10° ESE visible
02 Oct - 02:38:28 10° SW 02:52:46 55° SE 03:03:32 10° ENE visible
02 Oct - 04:46:05 10° WSW 04:58:37 49° NW 05:07:23 10° NNE visible
02 Oct - 15:26:32 10° NW 15:31:45 75° NE 15:39:21 10° SE daylight
02 Oct - 17:31:42 10° WSW 17:36:55 22° SSW 17:43:49 10° SSE daylight
03 Oct - 00:01:36 10° S 00:10:04 17° SSE 00:18:11 10° ESE visible
03 Oct - 02:04:38 10° SSW 02:18:51 49° SE 02:30:05 10° ENE visible
03 Oct - 04:11:37 10° WSW 04:25:08 58° NW 04:34:40 10° NNE visible
03 Oct - 06:26:56 10° WNW 06:30:05 12° NW 06:32:56 10° NNW daylight
03 Oct - 14:53:56 10° NW 14:58:49 57° NE 15:05:38 10° ESE daylight
03 Oct - 16:58:27 10° W 17:03:31 24° SSW 17:10:20 10° SSE daylight
03 Oct - 23:28:41 10° S 23:35:46 15° SSE 23:42:48 10° SE visible
04 Oct - 01:30:53 10° SSW 01:44:52 44° SE 01:56:28 10° ENE visible
04 Oct - 03:37:15 10° SW 03:51:32 68° NW 04:01:48 10° NE visible
04 Oct - 05:50:21 10° WNW 05:56:40 16° NW 06:01:56 10° N daylight
04 Oct - 14:21:25 10° NNW 14:25:57 42° NE 14:31:54 10° ESE daylight
04 Oct - 16:25:17 10° W 16:30:13 27° SSW 16:36:54 10° SSE daylight
04 Oct - 22:56:13 10° S 23:01:27 12° SSE 23:06:44 10° SE visible
05 Oct - 00:57:15 10° SSW 01:10:49 39° SE 01:22:40 10° E visible
05 Oct - 03:03:00 10° SW 03:17:51 78° NW 03:28:50 10° NE visible
05 Oct - 05:14:40 10° W 05:23:13 21° NW 05:30:02 10° N visible
05 Oct - 13:48:59 10° NNW 13:53:05 31° NE 13:58:09 10° ESE daylight
05 Oct - 15:52:12 10° W 15:57:00 31° SW 16:03:32 10° SSE daylight
05 Oct - 22:25:22 10° SSE 22:27:07 10° SSE 22:28:53 10° SSE visible
06 Oct - 00:23:44 10° SSW 00:36:44 35° SE 00:48:39 10° E visible
06 Oct - 02:28:53 10° SW 02:44:03 87° NW 02:55:43 10° NE visible
06 Oct - 04:39:23 10° W 04:49:42 26° NW 04:57:46 10° N visible
06 Oct - 13:16:38 10° N 13:20:14 23° NE 13:24:20 10° E daylight
06 Oct - 15:19:12 10° WNW 15:23:52 37° SW 15:30:11 10° SSE daylight
06 Oct - 23:50:21 10° SSW 00:02:37 31° SE 00:14:23 10° E visible
07 Oct - 01:54:53 10° SW 02:10:10 83° SE 02:22:29 10° NE visible
07 Oct - 04:04:21 10° W 04:16:07 32° NW 04:25:16 10° NNE visible
07 Oct - 12:44:27 10° N 12:47:20 16° NE 12:50:24 10° E daylight
07 Oct - 14:46:15 10° WNW 14:50:49 44° SW 14:56:54 10° SSE daylight
07 Oct - 23:17:07 10° SSW 23:28:30 27° SE 23:39:52 10° E visible
08 Oct - 01:20:59 10° SW 01:36:12 75° SE 01:49:05 10° NE visible
08 Oct - 03:29:31 10° WSW 03:42:28 38° NW 03:52:36 10° NNE visible
08 Oct - 12:12:42 10° NNE 12:14:22 12° NE 12:16:05 10° ENE daylight
08 Oct - 14:13:20 10° WNW 14:17:51 56° SW 14:23:38 10° SE daylight
08 Oct - 22:44:03 10° SSW 22:54:22 23° SE 23:05:02 10° E visible
